User: anonymous   Login
Location: Fiddletown
(38.4917°N, 120.6633°W)
Time: 01:01:41
(UTC-07:00)
Language:

Envisat - Orbit

View from above orbital plane
View from above orbital plane
View from above satellite
View from above satellite

Ground track
Ground track

The orbit data is extracted from the following two-line orbital elements,

1 27386U 02009A   16121.73457222  .00000021  00000-0  20824-4 0  9993
2 27386  98.2880 176.8419 0001372  81.1232 279.0113 14.37864128741806
Epoch (UTC): 30 April 2016 17:37:47
Eccentricity: 0.0001372
inclination: 98.2880°
perigee height: 764 km
apogee height: 766 km
right ascension of ascending node: 176.8419°
argument of perigee: 81.1232°
revolutions per day: 14.37864128
mean anomaly at epoch: 279.0113°
orbit number at epoch: 74180

The dashed part of the orbit path shows where the satellite is in the earth's shadow,  

DLR